Wind_Gust
22 23 24 25 23 26 24 24 12 10 11 13 12 10 13 13 15 13 13 17 19 16 15 13 11 12 13 16 18 18 16 16 16 17 18 20 21 20 20 19 20 19 20 21 23 23 22 22 22 20 20 19 18 18 18 19 19 20 20 18 16 16 16 17 18 18 18 18 18 16 16 16 15 17 14 14 13 14 14 13 14 13 14 14 15 16
22 18 18 20 23 23 28 25 15 13 10 12 12 11 15 11 15 13 14 17 18 16 15 12 13 13 13 17 18 18 19 19 19 19 18 18 18 19 19 19 19 19 19 22 22 22 21 23 22 21 20 19 20 19 19 18 19 18 20 19 17 16 15 15 16 16 16 16 17 18 18 18 18 17 16 15 13 12 14 12 12 12 13 14 14 14
22 22 25 28 28 28 28 26 21 13 13 11 11 13 13 14 17 13 12 15 17 16 12 14 14 14 15 17 18 18 18 19 19 20 20 20 20 20 21 20 20 20 20 22 22 23 23 23 23 22 20 21 21 21 21 19 18 18 18 18 17 16 16 15 17 17 17 14 14 15 16 14 15 12 12 14 13 12 14 12 12 12 12 13 15 14
19 26 32 31 17 17 15 19 17 14 14 13 15 15 12 18 18 15 15 15 17 16 10 13 14 14 15 16 17 17 20 17 15 18 19 18 22 21 21 22 22 22 23 24 23 24 22 21 22 21 22 21 21 21 20 19 20 19 18 17 18 16 14 15 17 15 15 15 13 13 13 12 13 15 13 13 13 13 13 14 12 13 12 13 15 16
26 17 14 14 17 20 20 19 19 17 15 12 9 9 13 15 12 12 21 17 14 15 11 13 15 17 19 21 21 20 18 17 19 19 20 20 19 21 20 21 22 24 23 25 25 23 22 23 23 22 22 23 22 22 21 21 21 20 20 19 18 18 15 16 16 16 15 16 15 16 14 13 14 12 13 13 13 12 12 13 11 13 12 13 14 14
17 16 15 16 16 16 17 19 22 20 20 18 12 10 10 14 14 15 21 18 18 17 18 14 20 20 21 21 22 23 24 24 23 23 24 24 23 22 23 23 24 24 23 25 26 26 24 23 22 21 23 23 23 23 22 22 22 18 20 20 17 17 16 16 16 17 17 16 15 15 16 16 16 15 14 13 12 12 11 13 12 12 12 12 13 14
15 12 15 17 17 17 17 14 18 20 23 13 13 10 12 15 16 18 18 17 13 10 16 12 20 13 19 20 22 25 25 25 24 25 26 27 28 26 26 26 26 26 26 25 24 24 24 23 23 23 23 24 23 22 21 22 20 20 20 19 19 16 17 16 16 17 16 15 16 15 16 15 15 15 12 9 10 11 12 12 11 12 10 12 13 13
12 11 12 14 16 17 17 16 16 20 22 18 13 11 16 18 18 17 16 11 11 10 12 13 16 18 16 19 21 24 24 25 26 26 26 28 27 29 27 27 25 27 25 26 25 24 23 24 24 24 24 24 24 21 22 21 21 21 19 19 19 18 18 17 17 19 17 16 16 16 14 15 14 14 13 11 11 11 11 12 11 11 11 11 12 13
9 10 10 12 14 19 14 15 13 17 16 15 12 13 15 15 16 15 12 10 10 12 14 17 12 17 14 18 16 23 23 25 27 28 29 29 29 29 28 29 28 27 26 26 26 26 25 25 24 23 23 23 22 23 22 22 22 21 20 20 19 18 18 17 17 18 18 16 17 17 16 16 14 13 12 12 12 12 11 11 10 10 11 11 11 12
14 11 15 16 18 15 13 12 16 16 14 12 16 18 18 17 15 12 11 9 10 14 13 12 16 16 16 19 20 20 21 25 29 31 30 30 30 30 31 29 28 27 26 27 26 25 25 25 24 23 22 22 23 22 20 21 21 22 20 19 19 19 19 18 17 18 17 17 16 17 16 16 15 13 13 11 12 12 11 12 11 11 11 12 11 11
22 9 11 12 13 16 18 16 12 15 18 22 20 23 20 15 14 11 10 9 12 10 13 10 12 15 16 19 18 21 24 27 24 26 27 29 29 30 29 30 30 30 29 28 27 26 25 24 24 23 22 21 21 21 21 22 23 22 21 19 19 20 20 19 19 18 18 18 18 18 17 16 15 14 13 13 13 12 12 12 12 11 11 10 12 12
12 10 13 12 10 20 20 25 16 20 23 20 18 20 20 15 12 12 11 10 11 12 14 11 10 13 16 18 15 21 13 15 18 22 28 30 32 32 29 30 31 29 28 28 28 28 26 25 25 24 23 22 22 21 23 23 23 22 22 20 19 19 19 19 20 19 19 19 19 16 16 17 15 14 15 15 15 15 14 13 12 11 11 11 11 11
15 13 13 14 12 16 25 24 18 17 15 15 18 17 15 10 14 9 15 8 10 16 14 11 12 15 23 20 14 13 21 17 17 21 24 30 32 32 31 30 30 30 28 29 28 27 27 28 27 25 23 23 23 24 24 24 23 23 21 21 19 20 20 20 20 19 19 18 18 18 17 16 15 15 14 15 13 13 13 13 13 13 12 12 13 12
18 11 14 15 12 16 15 21 19 18 17 16 18 14 13 7 9 6 11 11 12 15 14 12 11 17 15 18 18 23 20 22 19 20 18 23 29 32 32 31 30 29 30 29 29 28 28 28 28 26 25 25 24 23 25 25 24 23 21 21 21 20 20 19 20 21 20 19 18 17 18 17 16 15 14 13 13 14 12 12 13 13 13 14 13 14
13 14 18 20 12 18 16 15 22 13 22 15 10 13 12 14 12 7 11 9 13 15 14 11 16 14 14 16 9 10 11 12 14 18 16 17 23 29 31 31 31 29 28 30 29 29 28 28 26 26 26 25 24 24 25 25 25 24 23 23 22 21 21 21 21 22 21 20 19 18 19 18 16 16 15 15 13 11 12 12 12 12 13 13 13 14
10 14 17 11 13 15 15 10 11 21 17 10 9 11 13 10 13 15 16 14 14 13 11 15 12 14 17 12 11 12 14 13 13 16 16 19 20 25 29 31 31 30 30 30 28 29 27 25 25 26 25 25 24 24 25 26 26 25 24 22 23 22 21 22 22 22 22 20 20 19 18 18 16 14 15 15 13 12 10 11 12 13 13 12 13 13
15 14 12 12 11 13 11 13 12 15 13 17 16 12 12 13 15 12 9 9 8 14 9 9 16 16 17 18 12 10 11 11 11 16 19 20 21 21 26 29 29 29 30 29 30 29 28 27 25 27 25 25 24 26 26 25 26 24 23 23 23 22 21 22 22 22 21 21 19 19 19 18 17 16 15 15 13 13 11 11 11 12 13 12 13 14
12 18 11 15 17 10 9 10 13 10 14 22 13 15 15 10 12 12 11 9 11 11 11 11 15 16 15 12 11 11 11 11 12 16 19 19 21 22 24 26 29 29 29 29 29 28 29 28 27 27 27 26 26 25 26 26 24 24 24 22 24 23 23 23 24 23 22 22 21 20 20 19 18 18 18 16 15 14 13 12 12 12 13 14 15 15
15 14 17 11 13 14 12 16 16 12 11 15 15 19 18 13 15 13 11 7 10 8 14 13 13 15 18 15 12 12 11 12 14 16 19 22 23 23 23 25 26 27 27 29 29 29 29 29 28 27 25 27 26 25 26 28 27 25 24 24 23 23 22 23 24 23 23 22 21 22 21 19 19 18 18 17 16 13 14 14 14 13 13 13 15 16
10 11 19 11 10 15 15 19 14 16 13 11 13 14 9 13 14 10 11 14 18 8 9 14 14 16 12 18 11 10 12 12 15 17 19 21 22 22 23 26 28 29 27 29 30 29 29 28 27 28 26 28 27 27 26 25 26 25 25 23 23 22 22 23 24 23 23 24 22 21 21 20 20 20 19 17 16 16 16 16 15 14 13 15 16 16
10 12 7 18 12 17 18 18 18 24 16 17 17 14 13 11 12 16 11 15 14 10 10 12 14 15 18 15 12 12 13 16 19 20 18 20 21 21 21 24 26 27 27 28 28 30 29 27 26 27 26 28 27 27 26 26 27 27 25 24 24 24 25 24 24 23 22 22 23 21 21 20 20 19 19 17 17 16 15 14 12 13 13 15 16 17
10 13 6 14 18 18 16 17 14 14 15 18 16 13 14 14 14 13 13 12 10 13 9 12 15 18 22 13 11 10 9 12 16 17 18 19 21 21 21 21 23 26 26 27 27 27 28 26 26 28 28 27 27 28 28 27 26 27 26 26 26 25 26 25 26 24 23 21 21 21 21 20 19 20 20 18 17 17 17 14 13 13 14 14 16 17
13 11 10 11 15 11 16 12 9 12 14 14 15 11 13 10 14 14 11 11 14 10 12 13 11 15 16 10 10 10 9 11 12 14 14 15 19 20 20 21 21 22 25 27 27 28 27 26 26 28 27 27 27 27 27 26 27 28 26 25 25 27 26 26 25 24 23 22 21 21 21 21 21 21 19 18 17 17 17 16 14 14 15 15 15 17
9 15 14 14 12 12 13 11 10 8 11 14 15 13 13 16 15 17 16 14 15 13 14 12 10 18 16 11 10 10 11 10 10 13 16 15 16 18 19 19 21 21 21 22 24 24 25 25 25 26 26 28 28 27 27 26 26 26 26 27 26 27 27 26 25 25 24 23 22 22 21 22 22 21 21 20 19 18 17 17 16 16 16 16 15 18
12 12 18 10 13 18 17 17 14 11 13 15 12 13 15 12 12 10 12 10 14 12 15 16 15 12 15 13 13 12 11 10 11 12 13 15 15 17 19 19 20 20 21 23 24 24 24 24 27 28 28 28 29 28 27 27 27 27 27 26 27 27 27 26 25 25 25 24 23 23 23 22 22 22 21 20 19 18 18 18 17 16 17 16 16 17
17 9 14 15 12 10 11 13 13 15 14 10 11 11 14 16 16 14 13 15 15 12 13 14 15 19 17 13 11 12 10 9 9 10 11 12 13 17 19 20 20 22 23 23 24 24 25 27 27 26 26 28 28 29 29 28 28 28 28 27 25 26 27 27 26 25 24 25 25 25 24 23 22 22 22 22 21 19 18 18 18 17 17 18 18 17
11 9 14 15 19 16 16 15 11 12 9 14 11 12 13 15 16 17 13 16 18 12 15 15 17 18 19 16 13 12 10 10 10 12 13 14 13 14 15 18 20 21 22 24 24 24 24 23 26 27 26 26 26 26 27 28 29 28 28 26 26 26 27 27 26 25 25 25 25 25 25 26 25 23 22 22 21 19 19 20 18 19 19 18 18 19
13 14 9 9 12 15 12 9 9 11 13 12 13 10 12 14 14 15 17 16 16 17 19 15 13 18 17 16 14 13 11 9 9 10 12 14 15 16 16 16 14 20 20 23 24 26 27 26 26 26 26 26 27 27 27 28 30 29 28 29 28 27 26 27 26 26 26 25 25 25 26 25 24 24 23 22 21 21 20 20 19 19 18 17 18 19
13 11 11 9 8 8 10 9 8 9 13 13 14 12 11 13 15 18 20 16 16 18 19 14 11 16 18 17 14 13 12 12 10 12 10 12 14 15 16 17 19 20 22 24 25 25 26 27 27 27 27 27 25 26 27 29 29 28 27 27 28 28 28 26 26 27 27 26 26 26 25 24 24 23 23 23 23 21 21 20 19 18 20 18 18 18
13 9 7 9 9 11 10 9 8 10 11 13 15 15 13 16 18 19 19 14 17 18 17 18 16 18 20 19 17 13 8 9 9 9 11 14 15 16 17 18 20 21 23 25 26 27 27 27 27 27 26 26 28 28 29 28 29 31 29 29 29 29 28 27 26 27 27 27 27 25 25 25 23 23 23 23 23 22 21 20 20 19 19 19 19 19
12 9 7 11 15 13 11 9 9 11 11 16 12 13 14 14 16 15 16 13 11 18 20 18 18 20 18 15 17 9 9 10 11 12 14 13 15 15 16 18 19 22 23 24 23 25 25 26 26 26 27 27 28 28 29 28 29 29 30 29 29 30 29 29 27 27 27 28 27 26 26 26 25 25 25 24 23 22 22 22 21 20 20 19 18 18
12 8 11 10 14 13 12 13 11 9 14 14 16 12 13 15 16 14 15 14 16 16 13 12 16 19 14 13 10 10 9 12 12 13 13 14 15 15 16 17 19 20 22 24 24 24 25 26 26 27 28 28 28 28 28 28 28 28 29 29 29 29 29 29 28 28 28 28 26 26 27 26 26 26 25 25 25 24 23 22 22 21 20 19 18 18
12 12 12 10 15 10 14 9 11 12 16 19 12 12 10 13 14 12 13 11 15 13 15 13 17 16 14 12 14 11 11 11 12 12 13 14 14 16 17 17 18 18 20 21 22 24 25 27 28 28 26 26 29 30 29 29 28 29 29 29 29 29 28 29 28 29 29 28 27 27 26 26 27 27 26 26 25 24 23 23 23 22 20 20 18 17
10 12 10 9 13 12 10 12 11 17 16 13 12 9 13 14 12 14 14 14 15 18 17 14 17 17 13 12 14 13 13 12 11 12 10 14 15 14 14 14 15 17 17 20 21 23 23 24 25 27 26 27 28 30 28 27 29 27 27 28 28 29 29 29 29 29 30 29 29 28 27 27 27 27 26 25 24 23 24 23 23 20 19 18 18 19
12 11 9 8 12 13 10 13 16 14 18 15 9 8 11 11 13 15 15 16 12 17 19 20 19 18 15 14 13 13 11 11 10 12 12 14 11 13 16 15 15 15 17 19 20 20 21 22 23 23 24 26 26 25 26 27 26 24 25 26 27 28 28 29 29 29 28 29 29 29 28 28 27 27 26 25 24 23 24 24 22 21 20 19 19 20
14 11 8 12 14 12 16 15 15 14 13 13 14 10 8 10 10 12 15 15 15 16 18 19 18 17 16 12 12 11 11 10 12 13 13 13 13 13 12 14 15 15 17 19 21 21 21 24 24 25 25 23 24 25 26 25 24 25 25 25 26 26 27 27 28 29 28 28 28 29 28 28 27 26 25 25 25 25 25 23 23 22 20 19 19 19
15 15 13 16 12 18 12 16 17 14 18 14 11 11 17 13 13 13 10 12 13 14 15 14 15 13 14 15 12 9 8 11 14 15 15 15 15 13 14 11 12 16 16 16 18 20 20 20 21 22 20 21 23 25 25 23 23 23 23 24 25 26 27 27 27 28 27 27 28 28 28 27 27 26 26 26 26 26 25 24 23 21 19 18 18 21
15 18 12 14 13 17 17 20 21 15 15 14 13 12 8 8 10 11 11 12 16 18 17 16 17 17 16 14 12 10 9 16 18 14 17 16 15 13 11 11 11 12 13 13 13 14 16 16 17 20 22 22 22 22 22 21 22 22 22 23 24 24 25 27 27 27 26 27 27 27 27 27 27 26 26 25 26 26 24 23 21 19 17 21 23 21
10 11 13 15 14 10 15 20 22 19 16 16 14 16 13 12 10 10 15 15 17 22 19 18 19 18 16 15 12 11 16 17 12 19 13 12 13 13 12 12 12 12 12 13 15 16 17 17 19 20 20 21 22 23 21 22 22 24 24 24 25 25 26 26 26 26 27 26 25 25 25 25 25 25 25 25 25 24 23 22 20 18 17 19 18 19
10 11 10 14 11 15 17 22 19 18 13 18 20 20 18 12 9 12 16 17 21 28 22 21 20 19 17 15 14 13 18 19 18 19 12 10 10 9 12 13 12 12 12 13 13 14 15 16 18 18 21 23 23 22 23 23 24 23 24 25 24 25 25 25 26 26 25 24 23 23 23 22 22 23 23 25 24 22 22 21 19 18 18 15 16 16
11 7 7 16 15 12 8 20 19 17 18 20 22 21 17 10 11 15 14 19 30 28 25 22 21 19 17 16 15 14 15 15 17 15 13 11 9 10 10 9 10 11 13 14 13 11 16 19 22 24 24 23 21 22 23 23 24 24 23 22 23 24 26 26 23 23 23 22 22 22 23 22 22 23 23 23 22 19 18 18 18 16 17 18 16 17
16 13 6 7 8 14 14 18 20 15 14 20 25 16 19 17 12 14 21 24 24 24 25 24 21 19 18 17 15 15 15 18 17 14 11 10 11 11 11 9 9 9 9 10 13 15 15 17 17 17 17 18 21 22 23 23 23 23 22 22 25 28 28 22 21 20 20 21 21 22 21 22 20 20 20 19 20 19 17 16 16 16 15 17 21 19
18 13 11 12 17 13 9 13 18 18 16 26 25 15 28 17 20 22 24 21 21 23 24 24 21 21 21 19 16 16 18 19 17 15 14 14 13 13 12 11 9 11 12 11 12 15 16 15 17 19 17 17 19 21 22 22 22 21 20 23 26 28 23 19 19 20 20 21 22 20 22 25 23 19 17 17 18 18 18 15 15 15 15 18 18 19
15 11 10 11 17 14 11 15 15 15 19 19 23 19 22 19 20 20 20 24 23 23 23 23 20 23 23 21 19 15 12 15 16 16 14 15 14 14 15 14 12 9 7 8 9 14 15 15 14 15 14 15 17 19 20 22 22 21 20 24 26 20 17 16 16 17 18 19 24 27 27 26 24 19 16 16 16 16 17 17 16 17 17 17 24 23
16 13 12 12 15 12 14 15 14 15 13 14 16 16 15 17 17 18 19 21 23 24 22 22 23 24 23 24 20 14 13 15 15 15 15 16 17 18 18 17 15 13 11 9 8 10 11 13 12 13 13 14 15 16 19 19 21 18 22 25 19 16 16 15 16 16 18 20 21 23 23 21 21 19 18 17 16 16 17 17 18 18 16 17 18 18
13 12 11 14 12 15 17 16 15 14 13 12 12 15 17 18 18 19 19 21 20 21 21 22 22 23 24 24 24 16 17 16 15 16 16 17 19 19 18 19 18 17 14 11 10 9 11 9 10 12 14 12 13 14 15 17 18 21 25 19 12 13 15 17 17 18 18 17 17 18 19 19 19 19 17 15 15 16 17 16 16 16 16 17 17 18
12 12 13 15 14 15 13 13 14 20 19 13 12 13 13 15 18 18 17 18 19 20 20 20 21 22 23 24 25 21 19 18 17 17 17 19 20 20 21 20 19 19 18 16 13 8 10 11 11 10 11 13 12 13 13 13 15 19 14 12 12 12 13 15 16 16 17 18 18 17 17 17 17 15 13 13 14 15 15 14 15 15 16 16 16 16
12 13 15 13 13 14 17 21 17 20 18 15 17 15 16 14 14 15 16 17 17 16 18 20 21 24 24 25 26 24 22 23 22 19 20 20 20 20 20 21 20 20 20 19 16 11 11 12 12 12 12 12 10 10 10 11 13 12 9 10 11 11 12 14 16 17 17 17 17 17 16 17 8 12 13 13 14 14 14 13 14 16 17 19 18 16
14 13 12 13 16 14 14 13 19 21 19 17 15 12 15 14 13 17 18 18 17 17 18 21 23 23 25 26 26 25 26 27 27 24 21 20 21 21 22 21 21 21 20 21 20 20 19 17 17 16 16 15 14 13 13 12 11 10 10 9 11 12 13 12 12 13 13 14 15 14 13 13 15 15 13 13 13 12 11 14 16 15 12 10 11 16
14 11 17 15 13 12 16 19 19 19 19 18 17 15 14 14 13 13 14 16 18 18 19 21 22 23 25 27 27 28 28 28 29 27 26 25 23 20 20 21 21 21 22 20 21 21 22 21 19 18 18 18 16 15 15 14 14 13 12 10 10 11 13 12 12 12 13 13 14 14 14 14 15 14 14 14 14 13 11 8 9 12 13 12 9 11
14 13 17 16 13 16 17 16 14 13 14 15 14 14 14 14 15 19 15 15 15 16 15 18 20 22 25 26 26 28 28 29 29 27 27 28 26 24 22 21 22 21 22 20 21 23 23 22 21 21 21 20 18 18 18 17 16 15 14 12 11 13 12 13 12 13 13 12 12 11 11 12 12 11 11 11 10 10 11 13 11 5 8 9 8 8
Wind_Speed
3 6 7 8 6 6 11 11 2 4 2 5 5 4 5 4 6 5 6 9 10 7 6 5 3 4 5 8 9 10 9 8 8 9 9 10 10 10 10 10 10 10 11 11 12 12 12 12 12 11 10 10 10 10 10 11 10 11 9 9 8 7 7 7 8 7 7 7 8 7 7 7 7 7 6 6 5 5 5 6 6 5 5 6 6 7
5 6 5 8 10 12 12 9 6 4 3 4 4 3 5 4 6 5 6 8 8 7 6 4 5 4 5 8 9 10 10 10 10 11 10 10 10 9 11 10 10 10 9 12 12 13 13 11 13 11 10 11 11 10 11 10 10 9 10 10 8 7 7 7 7 7 7 7 7 7 7 7 8 7 7 6 5 4 5 5 5 4 5 5 6 6
4 7 10 8 12 16 15 12 12 6 5 3 3 4 4 4 7 5 4 7 7 6 3 6 6 5 6 8 9 10 10 9 10 11 11 11 11 10 11 11 11 10 11 12 12 13 12 13 14 11 10 11 11 12 11 10 10 9 9 9 8 7 7 7 7 7 7 6 7 7 6 6 6 5 5 6 5 4 5 4 4 5 5 5 6 6
8 9 16 21 9 5 9 11 9 6 5 4 5 5 3 7 7 5 6 7 8 5 1 5 6 5 6 7 9 9 10 9 9 11 11 11 12 12 12 12 12 13 12 13 13 14 12 11 11 11 11 11 11 11 11 10 11 8 8 8 8 7 7 7 7 7 8 7 6 6 6 5 6 6 4 4 4 5 4 5 4 5 4 5 6 7
12 7 9 6 8 9 8 8 8 3 4 3 0 1 4 6 3 2 7 8 6 7 4 4 6 5 8 9 9 10 9 9 10 10 11 11 11 11 11 12 13 14 13 14 15 14 13 13 13 12 12 12 11 11 11 11 10 7 9 9 9 8 7 7 8 7 7 8 8 7 7 6 5 4 5 5 5 4 3 3 3 4 4 5 5 5
7 3 5 4 6 8 7 8 9 9 2 5 5 1 3 4 5 5 11 9 6 6 7 6 6 6 10 10 10 11 11 12 12 13 14 14 13 12 13 13 13 13 13 14 15 15 14 13 13 12 13 12 11 12 11 11 11 9 9 9 9 8 8 7 9 9 8 7 7 7 7 7 6 6 5 5 4 4 3 4 4 4 4 4 4 5
1 4 5 6 7 7 7 5 10 8 8 4 2 2 3 4 5 7 8 7 4 1 6 4 7 1 4 9 11 12 14 14 13 14 15 15 15 14 13 13 13 14 14 14 14 13 14 13 13 13 13 13 12 11 11 11 11 10 9 9 9 8 8 8 9 10 7 7 7 8 8 7 7 6 5 3 3 3 3 3 3 4 3 4 4 4
5 3 3 6 7 7 7 6 7 10 9 6 5 3 6 6 6 7 6 4 2 2 4 6 5 6 3 7 11 14 14 14 15 15 15 15 16 17 16 15 14 14 14 13 14 14 14 14 14 14 14 13 12 11 11 11 11 11 10 9 10 9 9 8 8 10 8 7 8 8 8 7 7 6 5 4 3 3 3 3 3 3 3 3 3 3
3 3 2 2 6 7 3 6 6 8 2 4 5 6 6 6 5 4 3 1 2 3 4 6 3 6 3 7 8 13 12 14 15 16 17 17 17 17 16 15 16 16 15 15 14 14 15 14 14 13 13 13 13 12 11 11 11 11 11 10 10 10 9 9 9 9 9 7 8 8 7 7 6 5 5 4 4 4 3 3 2 2 3 3 3 3
5 3 6 8 7 3 6 4 4 5 4 5 6 5 5 5 4 3 2 2 2 4 2 3 3 5 0 7 8 10 10 12 14 16 17 18 18 18 17 17 16 16 15 15 15 15 15 14 14 13 12 13 12 11 11 12 11 11 10 10 11 11 9 9 10 9 9 9 8 9 8 9 7 6 5 4 4 4 4 4 3 3 2 3 3 2
10 3 4 4 4 7 9 7 4 4 7 11 9 9 7 5 4 2 1 2 2 2 4 2 2 5 3 7 6 8 8 10 10 12 14 16 17 17 17 17 16 15 15 14 15 15 14 14 14 14 13 13 12 11 12 12 12 11 11 11 11 11 10 10 10 10 10 9 9 9 9 9 8 7 6 5 5 4 4 3 4 3 3 2 3 2
4 3 5 4 1 7 9 11 6 8 11 10 6 5 5 4 3 3 3 2 3 3 4 1 1 3 6 6 5 6 5 7 8 11 15 18 19 18 17 16 17 16 15 15 15 15 15 15 14 14 13 13 13 12 12 12 12 11 11 11 11 11 11 11 11 11 10 10 10 9 9 9 8 7 6 6 6 5 5 4 3 3 3 3 3 2
5 4 5 6 4 6 9 9 7 8 6 5 4 5 5 2 3 2 4 2 1 5 4 1 3 5 6 6 4 5 6 6 6 5 12 16 19 19 18 18 16 16 16 15 14 14 14 15 15 14 14 13 13 13 14 13 12 12 12 12 11 11 12 11 11 11 11 10 10 9 9 9 7 7 7 7 6 5 4 3 4 4 3 4 3 3
7 4 6 6 5 7 4 3 6 6 6 4 5 3 4 1 1 1 1 1 1 4 3 1 2 5 1 4 3 2 4 4 6 6 6 12 16 18 18 17 16 16 16 15 15 14 14 14 14 14 14 14 13 14 14 14 13 12 11 12 12 12 12 11 12 12 12 11 10 10 9 8 8 7 7 6 6 6 4 3 3 3 3 3 4 4
4 6 7 9 3 8 5 6 2 2 6 3 2 3 3 3 2 1 2 3 3 4 4 3 5 3 3 3 1 3 4 2 3 6 7 8 13 16 17 17 18 17 16 15 15 14 14 14 15 14 14 13 13 14 14 13 14 13 12 12 13 12 13 12 12 12 13 10 11 10 10 9 8 7 7 6 5 4 5 4 3 3 3 3 4 4
2 4 7 3 5 7 7 1 2 4 5 2 1 2 4 1 1 4 5 5 5 3 2 3 2 4 5 3 3 4 5 5 5 7 8 10 10 14 15 17 17 16 16 15 15 15 15 15 14 13 13 13 12 14 14 15 14 13 12 13 13 13 13 13 13 13 12 11 10 11 10 10 8 7 6 6 6 4 4 3 3 3 3 3 4 4
5 5 5 5 4 5 3 4 4 4 2 3 5 2 3 3 4 0 2 3 2 3 1 1 3 4 5 3 4 2 3 3 4 7 9 11 11 12 14 15 16 16 16 16 15 15 15 14 14 14 14 13 13 13 14 14 14 14 13 12 14 13 12 13 13 13 12 11 11 11 11 10 9 8 8 7 7 6 5 4 4 3 3 4 4 5
4 7 4 6 9 2 2 2 3 1 2 7 3 4 4 0 4 2 2 2 3 2 2 2 4 3 1 2 3 3 3 3 4 7 10 10 11 12 12 14 16 16 16 17 16 16 16 15 16 15 14 15 14 15 15 15 14 13 13 13 14 13 13 14 14 13 12 13 12 11 11 11 10 9 9 8 7 6 5 5 5 4 4 5 5 6
5 4 6 1 4 6 5 7 6 2 3 5 5 4 6 3 4 3 2 1 2 2 2 4 3 3 7 5 3 5 2 4 4 7 10 12 12 12 12 14 15 16 15 16 16 15 15 14 15 15 15 16 15 15 15 15 14 13 14 13 13 14 13 14 12 13 12 12 10 10 11 11 10 9 9 8 8 6 6 7 6 6 5 5 7 7
2 4 6 4 3 7 6 7 4 4 3 2 2 4 1 4 4 1 3 4 4 2 1 4 4 5 3 6 3 3 2 3 5 7 8 10 12 11 12 13 15 16 15 15 15 15 15 15 16 16 15 16 16 16 14 15 14 15 14 13 13 12 13 13 14 13 13 13 11 11 11 11 10 10 10 9 8 7 8 8 7 6 6 7 7 7
1 2 0 6 4 7 5 5 3 4 5 5 6 4 3 2 3 4 2 3 4 2 2 2 1 4 7 5 5 3 2 2 5 6 6 7 10 11 11 12 14 15 15 15 15 15 16 15 15 15 15 15 15 14 14 14 15 14 14 14 14 14 14 14 13 13 12 11 12 12 12 11 11 11 10 9 9 8 8 7 6 5 5 6 7 7
2 4 0 5 6 5 3 7 5 6 5 7 5 4 2 3 5 4 2 2 2 3 2 2 3 3 7 4 3 2 1 2 5 5 6 7 9 10 10 12 13 14 15 15 15 15 15 15 15 15 14 14 14 14 16 14 14 15 15 14 14 14 14 14 14 13 12 11 11 12 12 12 11 10 10 10 9 9 8 7 6 5 5 6 7 8
4 3 2 3 5 1 6 5 1 5 6 6 5 2 2 2 4 4 3 3 4 1 4 4 3 2 6 3 2 2 1 1 2 4 5 6 8 10 10 11 12 13 15 15 16 15 15 15 15 15 16 16 15 15 15 14 14 14 15 14 14 14 15 15 14 13 12 11 11 12 12 11 11 11 11 10 9 9 9 8 7 6 6 7 7 8
1 4 4 5 2 4 4 4 2 1 3 6 6 4 4 5 3 6 5 5 5 1 4 3 2 2 6 3 0 1 2 2 1 4 6 6 7 9 10 11 12 12 12 13 13 13 13 14 14 14 15 15 15 15 16 14 14 14 14 14 14 15 16 15 14 13 13 12 12 13 12 12 12 12 12 11 10 10 9 8 7 7 7 7 7 8
4 2 7 2 3 6 7 7 4 2 4 5 3 3 6 4 4 3 4 2 5 4 6 5 4 1 6 3 2 2 2 2 3 4 5 7 7 8 10 10 10 11 11 13 14 14 14 14 15 15 15 15 15 15 15 15 14 15 14 14 14 14 15 14 13 13 13 13 13 13 13 13 12 12 12 12 10 11 10 10 8 7 8 7 7 8
6 1 4 4 4 3 4 4 3 5 4 2 3 3 6 7 5 3 4 4 5 2 5 4 3 2 5 2 3 1 2 1 2 3 4 4 6 8 9 10 10 11 12 14 14 14 15 15 14 14 15 14 15 15 15 15 15 15 15 15 14 14 15 15 13 13 13 13 13 13 14 13 13 13 13 12 11 11 10 9 9 9 8 8 8 8
3 1 5 5 7 5 5 5 4 5 2 4 3 4 4 7 6 7 2 4 6 3 4 5 7 8 7 7 5 4 2 2 3 5 5 6 6 6 8 9 10 11 12 14 14 13 13 13 16 16 16 14 15 15 14 15 16 15 15 15 15 14 14 14 14 14 13 13 14 14 14 14 14 12 12 12 11 10 10 10 10 10 9 8 9 9
4 5 2 3 5 7 5 3 4 4 5 4 5 2 3 5 6 7 6 4 7 3 7 2 5 5 7 8 6 4 3 1 3 3 5 6 7 7 8 8 10 11 11 12 13 15 16 15 15 16 16 15 15 15 14 15 16 16 16 16 15 15 14 12 14 14 14 14 13 14 14 14 14 13 13 12 11 11 10 10 10 9 9 8 9 9
3 3 4 3 2 1 3 2 2 3 5 5 6 5 4 5 7 9 8 7 8 7 7 5 2 8 9 8 5 3 3 3 1 3 3 5 6 7 8 9 10 11 12 14 15 15 15 16 16 16 16 16 15 16 16 15 16 15 15 15 15 15 15 14 14 15 15 14 14 14 14 13 12 12 12 12 12 11 11 10 10 9 9 9 9 8
4 1 1 2 2 3 3 2 1 3 4 5 7 7 6 6 8 9 10 7 8 10 9 9 9 10 10 9 8 5 1 2 1 2 4 6 7 8 9 9 11 11 13 14 15 16 15 16 16 16 16 16 17 17 16 15 16 16 16 16 15 16 15 14 14 15 15 15 15 14 14 13 12 12 12 12 12 12 11 10 10 10 10 10 9 9
4 1 0 3 6 5 4 3 2 3 3 8 5 5 5 6 8 8 8 6 5 10 12 10 10 10 5 6 9 2 0 2 3 5 6 5 6 7 8 9 10 11 12 13 13 14 15 15 15 16 16 16 17 17 16 15 16 16 16 16 16 16 16 15 15 15 15 15 15 14 14 13 13 13 13 13 12 12 12 12 10 10 10 10 9 9
5 0 3 3 5 4 3 3 2 2 7 6 9 2 5 7 8 5 5 5 7 7 7 5 7 7 1 5 3 2 2 4 5 6 6 6 7 7 7 7 8 9 11 12 13 14 14 15 15 16 17 17 17 17 16 15 15 15 16 15 16 15 15 15 15 15 15 15 14 14 14 14 14 14 14 13 14 13 12 11 11 11 10 10 10 9
3 3 4 3 5 3 6 2 1 6 7 7 2 3 2 6 8 5 5 5 8 7 6 5 6 7 5 4 6 3 2 3 3 4 5 6 6 7 7 7 6 8 9 10 11 13 14 15 16 16 16 15 15 15 16 16 15 16 16 16 16 15 15 16 15 16 16 15 15 15 14 14 14 14 14 14 13 12 12 12 12 12 11 11 10 8
3 4 3 1 3 4 3 2 3 7 6 1 1 3 5 7 6 7 6 6 7 8 6 4 5 9 6 5 6 4 1 2 4 1 2 3 5 6 5 4 4 5 7 8 10 12 13 12 13 14 16 15 15 14 14 14 15 14 15 15 15 16 16 16 16 16 16 16 16 15 15 15 15 14 14 13 13 12 13 12 12 11 10 9 9 9
4 3 2 1 3 4 0 4 6 6 2 1 2 1 3 4 6 8 8 8 5 7 10 10 8 10 6 5 5 4 3 2 2 3 4 5 4 5 5 4 3 4 5 7 9 9 11 13 13 14 14 14 15 15 14 14 14 13 13 14 14 15 15 15 16 16 15 16 16 16 15 15 15 15 14 14 13 12 13 13 12 11 10 9 9 10
4 3 1 3 4 3 4 4 5 2 4 4 6 4 1 3 3 5 7 3 6 8 7 9 7 8 9 5 4 3 3 3 4 5 5 5 6 4 4 3 3 4 6 6 7 9 10 12 13 13 14 12 13 13 13 13 13 13 13 13 14 14 15 15 15 15 15 15 15 16 15 15 14 14 14 14 13 13 13 13 12 12 10 9 9 8
7 5 2 4 2 5 3 6 5 5 7 5 4 4 7 4 5 5 2 2 5 6 7 6 6 1 2 7 5 2 1 4 5 5 7 7 7 5 2 1 1 3 4 5 6 8 9 10 12 12 11 12 13 13 12 12 12 12 12 13 13 14 14 14 15 15 15 15 15 15 15 15 15 14 14 14 14 14 14 13 13 11 9 9 9 9
6 7 1 4 2 5 5 6 6 5 5 4 5 5 2 3 4 5 4 3 8 9 8 8 8 8 6 4 4 4 3 7 7 2 7 7 7 6 3 4 3 2 3 4 5 6 7 8 9 11 11 13 13 13 11 11 11 11 12 12 12 13 13 14 15 15 14 14 15 15 14 14 14 14 14 14 14 14 13 12 11 9 8 9 9 10
1 3 3 4 4 2 5 5 5 6 1 6 6 9 7 4 3 2 5 1 7 13 11 10 10 9 7 5 4 4 5 6 2 7 3 2 5 5 5 4 3 3 4 5 6 7 8 8 9 10 11 11 13 13 12 13 13 13 13 13 13 13 14 14 14 14 14 14 14 13 13 13 14 14 13 14 14 12 13 12 10 9 8 9 9 9
2 3 3 4 4 4 5 7 4 3 2 9 12 11 9 5 1 3 6 2 10 17 13 12 11 11 9 8 4 5 8 7 8 8 5 1 1 2 2 5 5 4 4 5 6 5 7 9 10 10 11 12 12 12 13 13 12 13 12 13 12 13 14 14 13 13 13 13 12 12 12 11 12 12 13 13 13 12 12 10 9 9 8 7 7 6
3 1 0 3 3 4 4 5 5 4 5 11 12 12 8 4 3 4 3 7 16 16 14 12 12 11 9 8 3 0 1 4 6 6 6 4 2 3 2 3 2 3 4 5 5 6 7 9 10 11 12 11 11 12 12 12 12 13 12 12 12 14 13 12 12 12 12 11 11 12 12 11 11 12 13 12 11 10 9 8 8 8 8 7 6 6
6 4 1 0 1 4 5 5 4 3 3 10 13 7 11 8 1 4 8 11 13 14 14 13 12 11 10 9 4 4 4 6 6 5 5 3 3 4 4 2 2 3 3 4 5 5 5 6 7 8 9 9 11 12 12 12 12 12 11 12 13 13 11 11 11 10 10 11 11 11 11 11 10 10 9 9 9 8 8 8 7 7 7 6 6 7
5 3 3 3 5 4 2 4 5 5 5 16 11 4 15 6 5 6 9 10 11 12 13 13 11 11 12 10 9 7 7 5 5 6 6 6 6 6 5 4 3 1 3 4 4 5 4 5 6 7 7 8 10 11 11 12 12 11 11 12 13 11 10 10 9 10 10 10 11 10 10 10 11 9 7 7 7 7 8 7 7 7 7 7 7 8
5 3 2 3 5 3 3 3 3 3 7 10 10 4 6 7 6 7 9 11 11 11 11 11 10 12 13 11 11 8 5 4 5 6 6 7 7 6 6 6 5 3 1 1 1 4 5 4 5 6 6 6 7 8 9 10 11 10 11 12 8 8 8 8 8 8 9 9 9 9 9 9 8 8 7 7 7 8 8 8 7 7 7 7 8 8
6 4 3 3 3 3 2 4 4 2 1 2 6 6 6 7 8 9 10 10 11 11 12 9 12 13 13 14 11 7 5 6 6 7 7 8 8 9 9 9 8 6 4 2 2 1 2 3 4 4 5 4 6 6 7 7 9 10 10 6 6 7 7 7 7 8 8 8 8 8 7 7 7 8 8 7 8 7 8 9 9 8 7 7 7 7
5 4 1 5 2 5 2 3 6 0 4 3 4 4 2 3 7 10 10 9 10 10 10 10 11 12 13 13 12 8 8 7 6 8 8 8 9 10 10 10 10 9 7 5 4 2 2 2 1 2 5 5 5 5 5 6 7 8 6 5 5 6 6 7 7 7 7 7 7 8 8 9 9 9 8 7 7 7 7 7 7 6 6 6 6 7
4 5 4 4 5 3 1 5 6 11 11 4 1 1 2 5 5 6 7 8 9 10 10 10 10 12 13 13 14 12 10 10 7 7 7 7 9 10 11 11 10 10 10 8 6 2 3 3 4 3 3 4 4 3 3 4 5 5 5 5 4 5 6 7 8 8 8 9 9 8 8 8 7 6 6 6 6 6 6 6 6 6 7 6 6 6
2 3 6 5 5 4 4 3 6 10 8 5 7 7 7 7 5 6 6 7 8 8 9 9 10 12 12 13 15 14 13 14 13 10 7 8 8 9 10 10 11 11 11 10 9 5 5 4 5 5 4 4 3 2 2 1 1 1 1 3 3 3 5 6 7 8 8 9 8 7 7 7 4 5 5 4 5 5 5 5 5 6 6 6 5 5
5 5 1 4 4 1 1 2 8 7 8 7 4 5 6 6 5 5 6 6 8 9 9 11 13 12 13 14 15 15 15 16 16 14 12 9 9 9 9 10 11 11 11 12 12 12 9 9 9 8 8 7 6 5 5 4 3 2 1 2 2 3 4 5 5 6 6 6 6 6 5 5 5 6 5 4 5 4 3 4 5 4 3 2 3 2
4 3 7 6 3 2 5 8 10 3 3 5 6 6 7 7 6 5 4 6 8 8 9 9 12 13 13 14 15 15 16 15 17 16 15 13 13 11 10 10 11 12 12 11 11 12 12 12 11 10 10 8 7 7 7 7 6 5 4 3 2 3 5 5 5 5 5 4 4 4 4 4 5 5 5 5 5 5 3 7 8 7 4 1 7 9
5 4 5 4 3 5 7 7 6 4 1 4 4 4 5 7 6 6 8 8 8 9 8 8 9 10 11 13 13 14 14 15 17 16 16 15 15 13 12 11 11 11 11 11 12 13 13 13 13 12 12 10 9 9 9 8 7 7 6 4 2 1 3 5 4 5 5 4 4 4 2 4 4 3 3 3 3 3 4 5 3 5 7 7 7 7
Wind_Direction
156 183 189 199 184 189 201 202 223 135 135 133 160 197 167 175 140 123 141 156 185 199 204 194 189 168 176 173 173 173 180 195 192 186 189 189 183 186 183 179 174 172 165 167 167 163 165 158 156 157 155 156 155 155 156 160 160 154 153 150 149 145 149 150 156 156 151 145 134 136 127 127 125 108 108 97 85 76 65 54 57 56 54 52 44 38
180 214 265 203 186 172 194 192 225 194 182 164 134 176 146 206 137 142 148 163 176 221 151 193 205 178 176 160 171 173 183 190 193 189 195 187 189 186 184 183 178 171 164 164 168 166 164 163 159 160 160 158 162 164 165 168 160 157 157 153 149 150 156 153 156 149 151 149 141 143 141 133 130 131 119 109 105 91 85 71 63 54 56 62 58 51
174 232 218 232 219 185 187 187 218 197 193 180 203 131 153 117 104 115 145 165 173 224 178 179 223 184 169 171 158 180 191 192 193 194 192 190 190 190 186 185 179 170 172 169 170 169 169 169 163 165 165 169 169 168 174 169 164 163 163 156 155 154 159 154 152 157 156 149 144 145 135 131 114 78 84 92 84 89 86 79 73 61 48 46 58 55
189 231 240 219 188 194 175 196 199 209 231 208 170 201 117 123 183 145 164 183 174 224 327 184 237 159 162 167 172 187 191 193 193 193 191 198 192 191 191 186 181 176 175 174 175 172 174 170 169 167 173 173 174 174 178 171 169 168 166 165 161 160 160 153 157 160 150 148 144 130 138 126 134 123 115 113 114 107 109 90 63 64 60 48 49 48
209 171 199 187 201 204 195 181 212 243 216 184 340 29 127 154 191 139 173 181 178 204 253 211 238 188 181 178 185 182 192 193 192 194 198 200 202 198 191 192 190 184 179 178 178 177 177 174 177 175 175 175 180 180 178 176 175 174 169 170 166 166 163 162 161 158 152 150 154 145 143 138 131 147 147 143 120 105 107 114 96 77 63 62 61 57
224 173 162 196 185 201 210 190 164 204 70 253 154 261 58 130 140 110 137 169 187 198 204 244 253 191 166 198 189 171 184 197 193 194 197 197 201 196 196 196 195 194 185 184 182 180 178 178 177 179 179 180 184 185 182 180 178 175 174 169 170 167 168 166 167 164 165 166 162 161 158 158 160 146 156 142 137 140 114 80 87 77 69 67 65 68
24 100 230 205 194 194 215 209 173 186 197 186 101 152 171 131 125 141 164 204 199 251 135 216 280 114 212 186 188 176 183 191 190 198 195 196 196 199 198 196 194 195 189 191 188 182 179 179 179 182 184 186 188 185 182 182 180 182 180 173 177 167 174 171 170 172 176 173 171 172 167 161 162 150 129 102 104 102 109 116 104 92 80 77 77 66
193 177 211 218 206 207 202 201 167 171 232 96 152 182 149 146 154 163 185 241 358 92 151 219 235 304 221 169 179 175 186 188 191 196 198 197 199 197 196 196 195 196 193 192 187 185 184 183 182 185 184 185 189 184 184 182 182 186 187 179 184 177 175 178 170 179 184 179 176 180 175 164 171 157 140 153 137 121 123 122 119 121 114 90 84 86
318 110 64 212 209 217 174 45 107 210 44 193 134 164 148 145 135 173 198 219 12 287 189 179 209 245 228 112 158 172 190 195 199 198 199 198 199 198 199 196 193 197 193 192 190 188 188 187 186 186 184 186 187 187 185 182 185 184 187 185 183 180 181 180 177 187 182 187 181 181 177 173 171 150 153 157 152 152 147 144 136 118 101 100 83 85
104 14 350 326 248 150 80 115 131 163 139 122 132 125 121 119 143 202 206 197 171 262 93 104 210 284 248 124 158 182 207 205 207 203 200 200 197 196 196 197 196 193 193 193 192 189 189 188 189 188 186 183 187 188 184 185 185 185 183 187 182 182 185 181 183 191 185 188 185 184 182 178 165 168 162 165 153 165 169 157 157 150 153 130 129 110
289 330 310 278 357 84 111 96 117 87 94 135 138 139 138 154 147 199 301 299 241 233 78 72 218 283 293 175 155 180 206 216 206 200 201 199 199 198 197 195 193 193 193 191 192 189 189 190 188 189 189 185 184 188 186 187 190 184 185 188 185 187 189 184 187 190 187 189 189 187 185 182 178 180 172 175 173 173 185 174 168 175 156 157 119 124
243 175 188 78 181 110 115 103 96 123 138 155 162 151 156 143 176 201 176 210 255 120 91 89 275 237 269 111 142 175 164 196 206 195 196 197 198 197 196 196 194 193 193 192 190 189 187 186 190 189 190 186 185 185 188 189 193 187 187 189 186 187 191 186 188 192 189 193 193 193 192 188 190 183 187 190 186 186 188 175 179 169 167 162 150 151
163 101 74 136 164 164 128 119 118 145 163 218 175 195 243 121 211 188 182 199 26 29 81 224 225 214 232 304 320 172 198 181 201 206 189 196 197 195 195 195 194 192 193 191 192 190 185 186 187 189 189 188 186 188 189 190 193 192 192 191 189 187 189 189 189 191 191 195 196 196 195 194 193 195 201 191 191 194 182 181 181 180 184 167 174 175
103 106 163 137 197 221 217 152 154 171 197 199 196 205 245 216 71 339 103 41 143 112 102 286 137 262 16 202 199 231 183 190 184 204 197 191 196 193 193 192 192 192 193 192 191 191 187 184 186 187 188 189 189 190 188 191 193 195 195 192 192 188 188 187 189 192 193 195 197 197 197 199 191 200 200 201 191 181 194 189 200 203 194 184 187 174
147 177 174 176 169 173 171 274 194 16 167 166 328 256 325 330 345 286 355 35 4 12 84 132 229 9 284 64 56 130 111 140 202 200 194 196 192 193 193 191 191 191 193 193 191 192 187 183 186 187 189 191 190 188 186 191 193 196 197 192 193 190 187 188 190 192 194 196 197 197 198 204 199 199 198 201 208 199 191 201 199 221 199 198 181 178
355 56 111 139 35 182 195 80 317 74 125 140 157 292 247 51 6 324 28 340 348 328 187 172 304 352 12 136 189 211 235 238 223 216 188 186 190 186 192 192 191 190 191 192 191 191 188 183 186 187 190 191 190 186 186 189 189 196 198 191 194 195 189 190 191 193 195 197 196 197 199 203 208 210 201 206 210 215 236 237 239 208 217 206 177 168
182 127 115 149 176 208 169 176 151 222 264 192 208 180 45 25 295 193 272 292 282 260 38 337 224 174 94 308 132 149 181 157 185 186 185 181 181 181 190 191 190 189 190 191 190 191 187 183 185 187 188 190 189 187 189 190 189 190 192 190 194 196 192 193 192 194 195 198 197 197 199 203 207 212 213 211 209 221 222 237 242 237 223 193 182 161
306 104 115 172 170 125 144 186 129 170 21 163 207 95 110 205 334 288 327 168 234 1 56 334 14 4 157 105 123 143 172 134 157 167 173 174 173 178 187 190 189 190 190 189 191 190 186 184 184 188 189 191 190 191 189 189 189 186 192 191 192 196 194 193 191 193 195 196 199 197 201 206 211 213 214 214 219 216 219 222 230 233 214 199 180 172
305 162 121 81 105 132 169 175 162 137 288 308 24 125 238 133 204 145 255 317 352 37 5 87 331 86 343 68 146 136 151 130 160 162 163 172 177 182 183 187 188 188 188 189 191 188 185 185 184 188 189 192 191 193 191 186 188 186 190 192 195 193 194 191 189 191 194 198 199 200 203 207 208 213 214 213 217 217 224 228 229 226 217 194 176 174
193 286 121 139 184 144 180 217 198 149 158 307 227 197 74 287 347 244 30 329 282 345 25 19 312 72 35 41 354 65 96 128 153 173 183 181 182 183 183 184 185 187 189 189 189 188 185 184 185 186 189 193 190 191 191 184 188 187 188 191 192 191 191 191 192 191 195 198 199 202 202 205 208 208 212 212 215 217 224 234 227 217 209 187 179 180
266 317 286 108 119 176 193 203 153 183 225 189 208 180 184 267 37 310 233 306 344 334 6 4 5 44 62 17 12 36 72 161 173 183 189 188 183 187 183 181 184 184 185 188 188 186 183 181 185 185 188 193 190 190 190 184 189 188 188 190 190 191 191 194 195 193 198 199 202 202 204 201 205 207 210 215 213 223 232 238 238 216 208 181 185 179
243 223 42 154 164 185 194 234 288 204 196 202 232 211 230 206 201 237 155 204 254 290 10 305 350 327 71 35 17 15 37 216 197 192 187 191 185 184 181 179 181 180 182 186 186 185 183 179 183 184 186 192 189 188 190 186 190 188 190 189 188 190 194 196 197 198 198 200 202 203 201 201 200 205 210 212 218 224 228 228 225 221 207 190 187 185
335 322 298 210 189 174 92 101 277 294 292 303 298 289 264 225 288 281 300 118 254 150 305 306 309 37 66 40 25 5 354 283 220 224 199 193 185 186 179 177 180 182 182 184 185 184 182 179 180 183 184 187 186 187 189 187 190 190 190 188 188 191 195 196 198 199 199 198 200 200 200 200 201 204 211 216 219 224 227 226 222 216 208 202 190 192
269 246 232 230 154 125 136 143 134 228 253 235 217 259 242 248 245 293 322 357 309 156 248 205 230 46 72 154 293 198 279 281 217 222 211 185 189 184 181 174 176 180 182 184 183 181 180 175 176 180 181 184 184 186 187 188 189 190 190 191 190 193 194 195 198 198 199 199 199 199 200 201 203 207 210 216 218 224 225 228 225 218 217 211 196 195
242 148 282 247 215 182 169 167 157 138 228 243 253 183 249 269 265 295 290 298 277 277 304 304 291 106 220 172 206 229 231 220 208 185 213 188 174 184 184 177 176 176 176 179 177 175 175 173 177 180 180 185 184 185 185 188 190 190 191 192 192 192 193 196 198 200 199 199 199 199 203 205 207 210 215 219 221 222 224 226 225 221 219 211 203 202
248 186 223 247 232 226 212 217 145 203 189 179 258 216 227 248 225 220 251 233 257 258 282 275 280 9 40 265 189 148 340 235 151 164 173 196 179 185 185 177 176 175 177 179 175 174 177 176 178 181 181 185 184 185 184 188 189 192 191 192 193 191 191 195 197 200 201 199 199 201 204 208 212 215 217 219 222 225 226 226 226 221 218 219 211 202
273 172 255 294 318 308 26 34 37 342 250 244 126 239 223 234 221 232 229 263 269 330 269 260 274 321 314 307 330 27 289 254 164 167 176 175 176 181 180 178 179 178 178 180 178 177 178 178 183 183 180 186 184 186 185 188 189 192 192 191 193 194 193 194 196 199 201 202 201 203 207 210 213 216 220 221 224 224 226 228 228 228 227 220 214 204
231 237 188 238 209 275 343 24 38 316 299 297 274 226 220 214 224 235 252 295 3 292 263 342 327 292 300 303 318 350 1 243 164 185 165 161 172 178 179 180 178 180 179 180 180 181 183 184 183 183 182 184 186 185 187 188 191 191 192 192 192 193 193 194 196 198 200 202 204 207 208 212 214 218 222 224 224 226 228 230 229 229 233 228 217 213
313 265 105 240 243 134 16 33 7 298 284 299 286 286 236 222 213 232 250 244 221 272 295 6 312 289 299 298 321 347 348 329 347 140 166 149 157 166 172 180 184 186 183 186 187 186 185 184 186 185 183 185 185 186 190 191 191 191 192 193 191 193 195 194 196 199 201 202 206 209 211 212 216 219 222 223 226 227 227 230 232 228 225 223 219 218
262 228 75 257 243 157 128 106 154 252 264 260 265 259 261 239 232 239 254 268 269 270 283 301 302 293 291 301 304 333 328 274 158 124 148 166 163 170 181 183 189 190 191 194 190 189 190 189 185 186 183 184 188 187 191 192 191 190 190 191 191 194 195 195 198 201 202 205 207 209 211 213 216 219 221 223 225 228 228 228 227 225 225 223 221 219
267 114 17 224 244 157 125 152 177 264 276 274 279 276 268 267 260 253 261 258 274 270 271 278 281 287 310 340 305 357 311 229 199 193 186 170 169 177 186 189 192 196 196 197 194 192 192 189 187 185 185 187 189 189 191 192 192 192 192 192 192 194 194 195 198 203 205 208 208 209 211 215 217 219 222 224 228 229 229 228 226 224 224 225 222 219
264 119 221 216 248 141 248 179 196 253 259 281 285 336 344 307 272 235 249 249 243 270 273 271 271 268 144 188 250 250 238 227 210 188 181 182 183 179 194 195 198 201 201 199 195 192 191 191 187 188 190 191 192 190 191 192 193 192 194 192 194 194 194 197 199 203 206 210 209 210 211 213 217 220 223 225 227 229 229 230 229 224 222 223 217 213
341 269 230 235 248 261 137 244 247 265 272 254 300 72 240 218 261 289 265 242 241 269 264 254 280 25 335 335 296 291 277 306 235 199 189 202 193 188 193 201 202 199 204 204 196 192 191 192 190 189 191 192 194 195 196 193 193 195 194 192 195 193 195 197 200 204 208 209 211 212 214 215 218 222 224 226 229 229 231 231 230 228 223 223 217 208
290 282 272 311 254 237 191 330 284 269 266 355 198 344 302 297 298 285 279 258 240 224 256 297 271 280 302 299 300 316 305 210 269 221 221 210 191 205 204 209 222 200 198 205 202 197 191 189 189 191 192 193 189 195 205 201 200 197 195 194 193 195 195 198 200 205 208 210 212 214 215 218 221 224 226 228 229 231 233 231 231 230 229 226 217 211
274 287 276 290 265 264 40 227 260 263 287 342 89 55 327 297 299 280 287 283 270 233 251 268 297 297 299 306 297 299 286 279 261 262 213 203 212 195 196 190 201 207 197 200 205 201 188 187 188 189 190 193 190 191 199 201 200 196 196 196 196 197 196 200 202 205 209 211 213 215 217 219 221 225 227 228 230 231 233 233 233 231 228 224 221 213
244 245 258 254 259 278 264 259 258 306 50 134 112 79 131 235 251 284 264 357 327 288 273 277 298 325 324 312 317 325 315 304 284 246 231 188 191 193 182 200 197 198 200 199 199 201 192 188 189 188 188 187 188 192 197 198 194 193 195 196 198 197 200 202 206 209 209 213 214 216 217 219 222 225 227 229 231 232 233 233 233 232 227 225 223 218
240 258 223 257 209 264 271 268 278 338 290 159 175 45 1 1 347 349 346 59 35 16 346 314 303 12 291 322 336 333 291 257 261 229 184 184 176 180 182 121 171 200 175 190 191 194 195 189 189 188 181 182 187 188 194 192 190 193 194 197 200 200 202 204 208 211 211 214 216 218 220 220 222 224 227 229 231 233 235 235 234 231 225 223 220 219
220 235 206 253 236 241 269 271 269 253 259 76 5 56 343 333 317 296 276 171 54 26 11 342 324 324 327 344 349 346 307 267 270 359 134 159 157 159 140 108 114 121 147 164 159 179 183 187 190 180 185 183 186 188 184 186 185 189 194 198 200 202 205 206 210 211 213 215 216 218 219 222 223 225 227 230 233 234 235 236 235 231 217 220 221 221
137 274 259 235 247 213 246 260 267 271 27 56 23 359 6 321 278 202 256 193 35 6 1 350 331 333 332 330 351 15 304 286 337 121 177 184 161 152 150 136 130 120 132 152 160 172 170 176 187 180 184 186 187 186 183 185 184 189 194 197 199 201 204 207 209 210 213 216 217 219 220 221 224 227 229 230 232 232 235 233 231 228 218 218 226 233
125 189 212 232 254 246 257 254 256 311 30 8 354 346 358 8 300 229 263 97 352 353 343 346 332 329 329 319 352 320 330 338 23 3 22 308 69 124 147 140 136 140 142 148 151 163 160 164 171 179 184 191 190 185 184 186 187 193 197 197 200 202 205 206 208 211 212 216 217 218 218 217 219 223 226 230 232 231 233 234 229 221 222 223 229 236
27 12 258 277 262 227 225 263 264 167 65 357 346 342 351 5 266 262 311 345 328 326 331 333 331 328 326 318 320 308 72 328 341 321 329 337 303 147 97 49 92 138 146 151 146 162 163 171 178 181 185 187 185 184 183 186 189 193 199 200 203 206 208 205 205 210 212 213 213 213 214 212 212 214 218 225 231 232 231 226 227 231 225 217 227 232
12 340 165 68 311 281 272 256 247 85 16 332 338 355 338 285 309 356 340 317 317 327 331 330 328 338 335 321 313 295 338 349 345 359 6 17 38 41 54 95 127 109 67 71 128 177 176 171 177 183 183 177 178 181 182 187 192 197 196 201 209 209 205 205 205 208 211 213 213 213 213 214 215 216 221 228 229 227 227 230 235 231 212 218 221 215
14 326 7 26 335 281 246 259 258 242 32 357 340 27 17 39 31 346 330 335 345 338 334 335 334 347 343 326 329 330 327 353 26 31 38 33 42 48 51 57 59 104 149 155 176 187 193 172 179 185 182 175 178 182 184 188 193 197 197 207 210 206 204 201 202 202 207 210 214 215 218 218 215 210 215 221 217 223 234 233 227 213 212 211 216 223
19 309 4 37 18 329 324 3 23 359 324 358 15 50 42 40 15 3 349 357 358 358 349 332 340 348 342 334 327 328 341 19 46 37 44 40 36 48 60 56 57 55 75 124 196 179 190 190 180 177 181 171 178 184 186 188 194 197 203 211 205 209 204 201 203 208 209 211 217 218 218 217 214 218 219 217 208 219 228 225 219 215 218 220 223 222
27 32 13 336 31 3 333 332 25 350 346 92 53 43 29 19 16 7 5 7 1 359 353 349 346 342 340 339 321 334 0 33 45 44 42 38 40 32 37 38 33 39 47 59 59 102 204 202 172 167 162 163 168 184 188 193 203 203 210 207 196 200 198 192 195 198 209 208 212 216 223 226 222 216 216 213 209 218 223 224 219 220 218 212 221 229
80 41 347 271 39 330 326 40 301 97 214 236 138 145 179 326 358 351 360 360 13 357 1 1 355 357 352 352 350 6 5 7 40 50 47 42 42 42 38 35 31 25 30 42 45 60 168 153 154 164 156 150 159 178 188 198 206 212 206 190 193 201 200 207 210 212 217 218 230 233 233 236 234 229 221 217 224 228 235 239 226 230 230 222 228 231
54 343 312 350 359 310 322 314 358 358 356 324 168 273 33 21 348 342 345 358 1 3 5 9 18 18 12 11 5 1 6 359 21 46 52 49 46 41 38 36 33 29 21 21 19 42 134 152 154 151 156 143 130 162 180 200 213 216 206 203 193 194 206 214 214 216 216 219 222 223 227 230 232 229 225 222 226 227 227 221 221 221 222 218 222 226
126 325 287 13 334 354 7 332 1 360 70 17 356 342 344 347 347 352 355 348 344 360 19 24 25 38 29 25 15 12 17 14 13 13 29 47 51 46 43 38 34 33 30 26 23 31 83 90 98 104 104 91 77 101 99 113 130 97 159 181 200 204 203 213 217 219 217 213 212 210 205 216 182 209 215 209 212 215 208 212 211 211 211 214 216 219
349 293 327 345 311 346 292 91 0 73 68 63 38 22 349 351 344 3 8 357 354 2 25 45 45 44 44 39 30 23 22 22 15 10 11 21 39 50 52 51 45 43 38 36 37 36 48 62 70 71 72 70 66 68 69 57 48 38 318 272 244 227 222 215 200 219 203 192 195 194 194 197 182 200 197 180 189 199 197 200 200 204 200 207 243 262
279 3 334 290 309 354 12 351 354 346 353 40 27 11 357 3 7 10 25 34 24 15 4 27 41 41 42 42 47 38 29 24 22 22 23 21 20 26 46 61 61 55 51 50 49 49 51 51 54 56 58 57 55 59 61 56 51 39 22 13 317 234 221 203 192 200 187 184 166 154 164 166 164 177 175 172 174 167 133 42 36 17 360 96 71 44
8 347 339 17 318 341 348 347 352 314 63 61 17 20 19 18 24 29 40 39 44 42 33 33 41 42 37 31 28 35 39 34 26 22 25 26 23 19 22 37 54 59 57 52 54 51 50 48 48 51 51 50 51 55 55 54 51 47 40 44 68 158 175 165 164 145 136 124 92 42 128 146 144 150 154 141 145 154 147 151 133 65 53 39 48 33